Regional Weather Roundup
Issued by NWS Charleston, SC

Current Version | Previous Version | Graphics & Text | Print | Product List | Glossary On
Versions: 1 2 3 4 5 6 7 8 9 10 11 12 13 14 15 16 17 18 19 20 21 22 23 24 25 26 27 28 29 30 31 32 33 34 35 36 37 38 39 40 41 42 43 44 45 46 47 48 49 50
000
ASUS42 KCHS 260510
RWRCHS
REGIONAL WEATHER ROUNDUP
NATIONAL WEATHER SERVICE CHARLESTON SC
1200 AM EST FRI DEC 26 2014

NOTE: "FAIR" INDICATES FEW OR NO CLOUDS BELOW 12,000 FEET WITH NO
SIGNIFICANT WEATHER AND/OR OBSTRUCTIONS TO VISIBILITY.

NOT ALL STATIONS ARE QUALITY CONTROLLED BY THE NATIONAL
WEATHER SERVICE. USE DATA WITH CAUTION...ESPECIALLY
DEWPOINT OBSERVATIONS.

SCZ027-030-031-034>040-042>050-260600-
...SOUTHEAST SOUTH CAROLINA...

CITY           SKY/WX    TMP DP  RH WIND       PRES   REMARKS
N CHARLESTON   CLEAR     42  40  92 CALM      30.27S
WATERFRONT PRK   N/A     48 N/A N/A CALM        N/A
MOUNT PLEASANT FAIR      41  41 100 CALM      30.27S FOG
PINOPOLIS        N/A     50  45  81 CALM      30.18S
MONCKS CORNER  FAIR      41  39  93 CALM      30.26F
SUMMERVILLE    FAIR      39  39 100 CALM      30.27F
BEAUFORT MCAS  CLEAR     41  39  93 CALM      30.26F
BEAUFORT ARPT  FAIR      43  43 100 CALM      30.26F FOG
HILTON HEAD IS CLEAR     43  41  93 CALM      30.27F
WALTERBORO     CLEAR     37 N/A N/A CALM      30.28S
ALLENDALE      FAIR      39  39 100 CALM      30.26F

...SOUTHERN MIDLANDS AND PEE DEE...

CITY           SKY/WX    TMP DP  RH WIND       PRES   REMARKS
GEORGETOWN     NOT AVBL
KINGSTREE      NOT AVBL
ORANGEBURG     CLEAR     40  37  89 CALM      30.26F FOG
BARNWELL         N/A     37  36  93 CALM      30.27F
AIKEN          FAIR      36  36 100 CALM      30.29S
MANNING        FAIR      37 N/A N/A CALM      30.27S
COLUMBIA       PTCLDY    36  33  89 CALM      30.26F
SUMTER         CLEAR     39  35  87 CALM      30.24F
FLORENCE       CLEAR     41  38  89 CALM      30.26S
MYRTLE BEACH   CLEAR     45  39  81 CALM      30.26S
N MYRTLE BEACH FAIR      41  39  93 CALM      30.25F

$$

GAZ063-065-086>088-099>101-113>116-118-119-134>141-150-260600-
...SOUTHEAST GEORGIA...

CITY           SKY/WX    TMP DP  RH WIND       PRES   REMARKS
SAVANNAH ARPT  CLEAR     43  40  89 CALM      30.27F
HUNTER AAF     CLEAR     41  40  95 NW2       30.24F
FORT STEWART   PTCLDY    40  38  93 CALM      30.25F
STATESBORO     CLEAR     36  36 100 CALM      30.26F
SYLVANIA       CLEAR     39  39 100 CALM      30.27F
CLAXTON        FAIR      37  37 100 CALM      30.27F

...CSRA...CENTRAL AND FAR SOUTHEAST GEORGIA...

CITY           SKY/WX    TMP DP  RH WIND       PRES   REMARKS
THOMSON        PTCLDY    35  35 100 CALM      30.30F
AUGUSTA-BUSH   PTCLDY    33  33 100 CALM      30.27F
AUGUSTA-DANIEL PTCLDY    44  38  79 CALM      30.26F
SWAINSBORO     FAIR      39  39 100 CALM      30.27F
VIDALIA        CLEAR     39  39 100 CALM      30.27S
EASTMAN        FOG       37  37 100 CALM      30.30S VSB 1/4
HAZLEHURST     FAIR      41  41 100 CALM      30.25F
ALMA           PTCLDY    39  37  92 CALM      30.26S FOG
WAYCROSS       CLEAR     43  43  99 CALM      30.26F
JESUP          FAIR      41  41 100 CALM      30.27S
BAXLEY         FAIR      43  41  93 CALM      30.26S
BRUNSWICK      PTCLDY    41  39  93 CALM      30.27F
SAINT SIMONS   PTCLDY    44  41  89 CALM      30.26F

$$

SCZ027-028-034-036>038-045-046-048>050-GAZ119-141-260600-
...LAKE AND SUPPLEMENTAL COASTAL OBSERVATIONS...

STATION/POSITION TIME  TEMP    WIND        PRES    WAVE   SWELL
                       AIR SEA DIR/SP/G            HT/PER HT/PER/DIR
                 (UTC) (F)     (DEG/KT/KT) (MB)    (FT/S) (FT/S/D)
UPR LAKE MARION  NOT AVBL
WINYAH BAY       0400   47     320/  5     1024.0S
LAKE MURRAY      0400   44      CALM  /  1 1024.4R
ACE BASIN NERRS  NOT AVBL
FORT PULASKI     0500   49 56  320/  5/  6 1025.1F
SAPELO ISLAND    0400   42        CALM     1025.0S

$$

ANZ835-935-AMZ111-154-330-350-352-354-370-450-454-472-260600-
...C-MAN AND BUOY OBSERVATIONS...

STATION/POSITION TIME  TEMP    WIND        PRES    WAVE   SWELL
                       AIR SEA DIR/SP/G            HT/PER HT/PER/DIR
                 (UTC) (F)     (DEG/KT/KT) (MB)    (FT/S) (FT/S/D)
BUOY 41004       0500   59 71  360/ 10/ 14 1023.9F   3/ 8   2/ 8
BUOY 41008       0500   56 58  360/  8/ 10 1024.4F   1/ 3   2/130/ 8
FOLLY BEACH CMAN 0400   49     280/  4/  4 1025.3R
CAPERS NEARSHORE 0400   53     350/  8/ 10   N/A
FRIPP NEARSHORE  NOT AVBL


STATION/POSITION TIME  TEMP    WIND        PRES    WAVE   SWELL
                       AIR SEA DIR/SP/G            HT/PER HT/PER/DIR
                 (UTC) (F)     (DEG/KT/KT) (MB)    (FT/S) (FT/S/D)
5E ST. MARYS GA  0500      61                N/A     2/ 3
FRYING PAN BUOY  0500   59 70  340/ 12/ 14 1024.4R   3/ 6   3/190/ 6
BUOY 41025       0500   56                 1023.9R   5/ 8
CAPE LOOKOUT NC  0400   52     360/  7/  8 1024.2R
BUOY 41002       0351   68 74  350/ 10/ 14 1022.7    7/ 8   7/250/ 8
BUOY 41010       0500   69 77   10/ 10/ 16 1022.6F   5/ 7   5/340/ 7
ST AUGUSTINE FL  0500   52     330/  6/  7 1025.2F


$$


USA.gov is the U.S. government's official web portal to all federal, state and local government web resources and services.